Location: Shepherdstown, WV
(39.4326°N, 77.8042°W)
Time: 05:47:12
(UTC-04:00)

Vanguard 3 - Pass Details

Date: 05 August 2021
Orbit: 510 x 3260 km, 33.3° (Epoch: 21 September)

Event Time Altitude Azimuth Distance (km) Brightness Sun altitude
Rises 01:27:15 0° 280° (W) 7,149 12.0 -33.6°
Reaches altitude 10° 01:33:51 10° 268° (W) 6,200 11.5 -33.5°
Enters shadow 01:43:36 21° 239° (WSW) 5,181 10.8 -33.3°
Maximum altitude 01:46:20 21° 228° (SW) 5,034 - -33.3°
Drops below altitude 10° 01:57:15 10° 187° (S) 5,295 - -32.9°
Sets 02:02:21 0° 172° (S) 5,874 - -32.7°
